sat.trackr.live / text

‹ back to catalog

STARLINK-2579

NORAD 48459 · 2021-040AH

PAYLOAD ACTIVE UNKNOWN

§ Identity

Operator
Country
US
Launch date
2021-05-09
Launch site
AFETR
Launch vehicle
Mass (kg)
RCS (m²)

Purposes: comms

External: N2YO · Heavens-Above · Gunter

§ Orbital elements

Epoch: 2026-05-24T10:56:19.743648Z

Period
94.01 min
Inclination
53.1591°
Eccentricity
0.0001187
Mean motion
15.31720255 rev/d
Perigee alt
469.9 km
Apogee alt
471.5 km
Semi-major
6,848.8 km
B*
9.5720e-5
RAAN
185.7725°
Arg perigee
84.9093°
Mean anomaly
275.2044°
Rev number
27,830

§ Raw data

STARLINK-25791 48459U 21040AH  26144.45578407  .00002608  00000+0  95720-4 0  99962 48459  53.1591 185.7725 0001187  84.9093 275.2044 15.31720255278306

JSON: /api/v1/satellites/48459 · /tle

For live sub-satellite position, see the globe view (requires WebGL).

§ Visibility from observer

Set your observer location to see the next 7 days of passes ≥ 10°. The values pass through the URL so the page stays shareable.

No JS? Fill the form by hand. The geolocation button needs JavaScript.